TimeEDT,TemperatureF,Dew PointF,Humidity,Sea Level PressureIn,VisibilityMPH,Wind Direction,Wind SpeedMPH,Gust SpeedMPH,PrecipitationIn,Events,Conditions,WindDirDegrees,DateUTC
12:53 AM,69.1,66.0,90,29.93,10.0,SE,5.8,-,0.00,,Overcast,140,2013-09-20 04:53:00
1:53 AM,69.1,66.0,90,29.92,8.0,SE,10.4,-,N/A,,Overcast,140,2013-09-20 05:53:00
2:53 AM,69.1,66.0,90,29.91,8.0,SSE,9.2,-,N/A,,Overcast,160,2013-09-20 06:53:00
3:00 AM,69.8,66.2,88,29.91,6.0,SSE,8.1,-,N/A,,Overcast,150,2013-09-20 07:00:00
3:18 AM,69.8,66.2,88,29.92,7.0,South,9.2,-,0.01,Rain-Thunderstorm,Light Thunderstorms and Rain,170,2013-09-20 07:18:00
3:53 AM,69.1,66.9,93,29.91,3.0,WSW,6.9,-,0.02,Rain-Thunderstorm,Thunderstorms and Rain,250,2013-09-20 07:53:00
3:56 AM,69.8,66.2,88,29.91,2.0,SW,11.5,-,0.00,Rain-Thunderstorm,Thunderstorms and Rain,230,2013-09-20 07:56:00
4:03 AM,69.8,68.0,94,29.89,1.2,SSW,11.5,-,0.19,Rain-Thunderstorm,Heavy Thunderstorms and Rain,210,2013-09-20 08:03:00
4:14 AM,69.8,68.0,94,29.90,2.5,SSE,4.6,-,0.29,Rain-Thunderstorm,Thunderstorms and Rain,160,2013-09-20 08:14:00
4:42 AM,69.8,68.0,94,29.90,4.0,East,3.5,-,0.29,Rain-Thunderstorm,Light Thunderstorms and Rain,90,2013-09-20 08:42:00
4:53 AM,69.1,68.0,96,29.89,5.0,ENE,4.6,-,0.29,Thunderstorm,Overcast,60,2013-09-20 08:53:00
5:17 AM,69.8,66.2,88,29.90,4.0,ESE,5.8,-,N/A,,Overcast,110,2013-09-20 09:17:00
5:53 AM,69.1,66.9,93,29.88,3.0,SE,8.1,-,N/A,,Overcast,130,2013-09-20 09:53:00
6:00 AM,69.8,66.2,88,29.89,3.0,ESE,8.1,-,N/A,,Overcast,120,2013-09-20 10:00:00
6:53 AM,69.1,66.9,93,29.87,3.0,SE,4.6,-,N/A,,Overcast,130,2013-09-20 10:53:00
7:07 AM,69.8,66.2,88,29.88,2.0,SSE,6.9,-,N/A,,Overcast,160,2013-09-20 11:07:00
7:53 AM,70.0,66.9,90,29.87,2.0,SSE,6.9,-,N/A,,Overcast,150,2013-09-20 11:53:00
7:56 AM,69.8,66.2,88,29.88,2.0,SSE,6.9,-,N/A,,Overcast,150,2013-09-20 11:56:00
8:53 AM,71.1,68.0,90,29.86,2.0,SSE,10.4,-,N/A,,Overcast,160,2013-09-20 12:53:00
9:43 AM,71.6,69.8,94,29.86,3.0,South,11.5,-,N/A,,Overcast,180,2013-09-20 13:43:00
9:53 AM,73.0,69.1,87,29.86,3.0,SSW,11.5,-,N/A,,Overcast,200,2013-09-20 13:53:00
10:53 AM,75.9,71.1,85,29.85,3.0,SSW,12.7,-,N/A,,Overcast,210,2013-09-20 14:53:00
11:15 AM,75.2,69.8,83,29.86,8.0,SSW,15.0,-,N/A,,Overcast,200,2013-09-20 15:15:00
11:53 AM,77.0,70.0,79,29.84,8.0,SSW,11.5,-,N/A,,Overcast,210,2013-09-20 15:53:00
12:53 PM,81.0,70.0,69,29.81,9.0,South,15.0,-,N/A,,Mostly Cloudy,190,2013-09-20 16:53:00
1:53 PM,82.0,69.1,65,29.79,10.0,South,12.7,-,N/A,,Mostly Cloudy,180,2013-09-20 17:53:00
2:53 PM,80.1,71.1,74,29.78,7.0,SSW,9.2,-,0.00,Rain,Light Rain,200,2013-09-20 18:53:00
3:53 PM,82.0,68.0,62,29.75,10.0,SW,11.5,-,0.00,,Mostly Cloudy,220,2013-09-20 19:53:00
4:53 PM,79.0,66.9,66,29.75,10.0,West,12.7,-,0.00,Rain,Light Rain,260,2013-09-20 20:53:00
5:53 PM,70.0,66.0,87,29.76,5.0,West,15.0,25.3,0.02,Rain,Light Rain,260,2013-09-20 21:53:00
6:53 PM,70.0,66.9,90,29.75,10.0,WSW,6.9,-,0.00,,Overcast,240,2013-09-20 22:53:00
7:53 PM,69.1,66.9,93,29.76,10.0,South,8.1,-,0.00,Rain,Light Rain,190,2013-09-20 23:53:00
8:53 PM,69.1,66.9,93,29.77,10.0,South,8.1,-,0.02,Rain,Light Rain,190,2013-09-21 00:53:00
9:53 PM,68.0,66.9,96,29.76,9.0,South,8.1,-,0.02,Rain,Light Rain,190,2013-09-21 01:53:00
10:32 PM,69.8,66.2,88,29.77,8.0,SSW,8.1,-,0.02,Rain,Light Rain,210,2013-09-21 02:32:00
10:53 PM,69.1,68.0,96,29.76,8.0,South,6.9,-,0.03,Rain,Light Rain,180,2013-09-21 02:53:00
11:27 PM,68.0,66.2,94,29.76,8.0,South,10.4,-,0.06,Rain,Light Rain,190,2013-09-21 03:27:00
11:44 PM,68.0,66.2,94,29.75,9.0,SSW,13.8,-,0.07,Rain,Light Rain,200,2013-09-21 03:44:00
11:53 PM,68.0,66.9,96,29.75,9.0,SW,10.4,-,0.08,Rain,Rain,230,2013-09-21 03:53:00